Location: Baix
(44.7118°N, 4.7648°E)
Time: 01:58:09
(UTC+00:00)

Cosmos 2285 Rocket - Pass Details

Date: 07 August 2020
Orbit: 970 x 999 km, 74.0° (Epoch: 19 September)

Event Time Altitude Azimuth Distance (km) Brightness Sun altitude
Exits shadow 03:38:37 - 197° (SSW) 3,327 6.3 -9.5°
Reaches altitude 10° 03:40:15 10° 197° (SSW) 2,715 5.9 -9.2°
Maximum altitude 03:46:33 87° 111° (ESE) 980 4.1 -8.3°
Drops below altitude 10° 03:52:52 10° 22° (NNE) 2,723 7.2 -7.3°
Sets 03:55:25 0° 22° (NNE) 3,674 8.0 -6.9°
